Regional Weather Roundup
Issued by NWS

Home | Current Version | Previous Version | Text Only | Print | Product List | Glossary Off
Versions: 1 2 3 4 5 6 7 8 9 10 11 12 13 14 15 16 17 18 19 20 21 22 23 24 25 26 27 28 29 30 31 32 33 34 35 36 37 38 39 40 41 42 43 44 45 46 47 48 49 50

000
ASUS43 KLMK 281810
RWRKY
KENTUCKY REGIONAL WEATHER ROUNDUP
NATIONAL WEATHER SERVICE LOUISVILLE KY
200 PM EDT MON JUL 28 2014

NOTE "FAIR" INDICATES FEW OR NO CLOUDS BELOW 12,000 FEET
WITH NO SIGNIFICANT WEATHER AND/OR OBSTRUCTIONS TO VISIBILITY.

KYZ001>023-026-027-061>063-070>075-281900-
WESTERN AND SOUTH CENTRAL KENTUCKY

CITY           SKY/WX    TMP DP  RH WIND       PRES   REMARKS
PADUCAH        PTSUNNY   79  62  56 NW8       30.05F
HENDERSON      PTSUNNY   77  63  61 NW14G20   30.03F
OWENSBORO      PTSUNNY   78  60  53 NW14      30.03F
HOPKINSVILLE   PTSUNNY   80  59  49 NW13G21   30.03S
BOWLING GREEN  MOSUNNY   80  58  46 NW14G21   30.01F
GLASGOW        PTSUNNY   76  60  57 NW7       30.00S
$$

KYZ024-025-028>034-038-045-046-053-281900-
NORTH CENTRAL KENTUCKY

CITY           SKY/WX    TMP DP  RH WIND       PRES   REMARKS
LOUISVILLE/SDF PTSUNNY   74  59  59 NW13      30.00S
LOUISVILLE/LOU CLOUDY    73  58  59 W7        30.00S
FORT KNOX      PTSUNNY   74  63  68 NW9       30.00S
$$

KYZ035>037-039>044-047>052-055>060-089>105-281900-
NORTHEAST KENTUCKY

CITY           SKY/WX    TMP DP  RH WIND       PRES   REMARKS
LEXINGTON      PTSUNNY   73  60  63 NW12      30.00S
COVINGTON      CLOUDY    70  59  68 W12       29.97S
FRANKFORT      CLOUDY    71  60  68 NW9       29.99S
$$

KYZ054-064>069-076>088-106>120-281900-
SOUTHEAST KENTUCKY

CITY           SKY/WX    TMP DP  RH WIND       PRES   REMARKS
JACKSON        CLOUDY    71  59  65 VRB7      29.97S
LONDON         PTSUNNY   75  60  59 NW8       29.98F
SOMERSET       CLOUDY    72  59  64 NW7       30.00S
MIDDLESBORO    PTSUNNY   74  61  63 NW5       29.98S
MONTICELLO     PTCLDY    77  62  59 W10       30.01S
$$




USA.gov is the U.S. government's official web portal to all federal, state and local government web resources and services.